Portada
METAR-TAF:

METAR-TAF

Aeropuertos :

Poplar Bluff Municipal Airport

Poplar Bluff, Misuri, Estados Unidos

latitud: 36-46-14N, longitud: 090-19-20W, altitud: 100 m

Observación

El informe se hizo hace 40 minutos, a las 13:53 UTC
Viento 7 kt del noroeste
Temperatura 3°C
Humedad 75%
Presión 1022 hPa
Visibilidad: 16.1 km
Cielo despejado

METAR: KPOF 281353Z AUTO 32007KT 10SM CLR 03/M01 A3019 RMK AO2 SLP227 T00281006

Hora: 08:33 (14:33 UTC)


TAF: falta

Observaciones y pronósticos meteorológicos de más de 4000 aeropuertos (mensajes METAR y TAF).

Los puntos amarillos y rojos representan las estaciones disponibles.

Ponga el ratón en el punto deseado para ver el nombre de la estación.

Haga clic para ver las observaciones y los pronósticos meteorológicos.

Para cambiar el mapa : haga clic en los botones verdes con una cruz de color negro para hacer un zoom, en el botón verde con un guión para alejar o en las flechas verdes para mapas adyacentes.


METAR-TAF: